Weather in Zelezna Ruda

Czech Republic     49°08′14″N   13°13′54″E
temp.,
°C
wind,
m/s
gust,
m/s
humid.,
%
clouds,
%
prec.,
mm/h
press.,
hPa
HPBL,
m
28 november, sun
sun2801:00−1wsw119494 0.1 99848
04:00−2wnw1191100 0.0 99714
07:00−2ne0093100 0.0 99827
10:00−1n1285100 0.1 998235
13:00−2nw1291100 1.6 997325
16:00−2w0192100 0.4 998126
19:00−3sw1197100 0.6 99857
22:00−2w149690 1.1 999331
29 november, mon
mon2901:00−5wsw2297100 1.2 100041
04:00−4wsw2394100 0.1 1001207
07:00−4wsw2497100 0.5 1003241
10:00−2wsw3683100 0.3 1005562
13:00−3w3990100 0.6 1006921
16:00−2wsw41092100 0.3 1007923
19:00−2w51095100 1.1 1010858
22:00−3w41096100 1.5 1012937
30 november, tue
tue3001:00−3w41095100 2.6 1013699
04:00−3w4119499 0.6 1015788
07:00−3w51294100 1.1 1016979
10:00−1wsw71591100 0.9 1015979
13:00−2wsw101892100 2.4 10121120
16:00−2wsw102193100 3.0 10101166
19:00−1wsw91995100 5.9 10111101
22:000wsw81897100 4.6 10111028
1 december, wed
wed101:000wsw71797100 6.9 1011942
04:00+1wsw61697100 1.4 1011844
07:00+1wsw61698100 2.2 1009833
10:00+2sw51699100 0.5 1008850
13:00+2sw7169896 0.6 1006949
16:00+2sw7179018 0.1 1004869
19:00+2sw6168870 0.1 1002868
22:00+1wsw61597100 0.3 1001889
2 december, thu
thu201:00+1sw41398100 0.7 1000836
04:00+1sw41298100 1.4 1000833
07:00+1sw61297100 2.9 999966
10:00+1sw41197100 0.6 1000801
13:00+1sw3998100 0.9 999747
16:000sw2895100 0.1 999686
19:00−1sw229786 0.3 99978
22:000wsw1296100 0.1 999107